Hourly Weather Snizhkivka

Today, 22 April, Thursday

Time Temperature Precipitation Wind Pressure Humidity
00:00 +8°C° 0.1 mm 2 mps 757 mmHg 81%
01:00 +7°C° 0.1 mm 2 mps 757 mmHg 84%
02:00 +7°C° 0 mm 2 mps 757 mmHg 86%
03:00 +7°C° 0 mm 2 mps 757 mmHg 86%
04:00 +7°C° 0 mm 2 mps 758 mmHg 87%
05:00 +7°C° 0 mm 2 mps 758 mmHg 87%
06:00 +9°C° 0 mm 2 mps 758 mmHg 80%
07:00 +12°C° 0 mm 2 mps 758 mmHg 72%
08:00 +12°C° 0 mm 3 mps 759 mmHg 66%
09:00 +14°C° 0.2 mm 3 mps 759 mmHg 60%
10:00 +16°C° 0.2 mm 3 mps 759 mmHg 54%
11:00 +17°C° 0.2 mm 4 mps 759 mmHg 48%
12:00 +17°C° 0.1 mm 3 mps 758 mmHg 48%
13:00 +17°C° 0.1 mm 3 mps 758 mmHg 48%
14:00 +17°C° 0 mm 2 mps 758 mmHg 47%
15:00 +16°C° 0 mm 2 mps 758 mmHg 51%
16:00 +16°C° 0 mm 2 mps 758 mmHg 55%
17:00 +16°C° 0 mm 2 mps 758 mmHg 59%
18:00 +15°C° 0 mm 2 mps 759 mmHg 62%
19:00 +14°C° 0 mm 2 mps 759 mmHg 64%
20:00 +13°C° 0 mm 2 mps 759 mmHg 67%
21:00 +12°C° 0 mm 2 mps 759 mmHg 70%
22:00 +12°C° 0 mm 2 mps 759 mmHg 73%
23:00 +10°C° 0 mm 2 mps 759 mmHg 77%

Tomorrow, 23 April, Friday

Time Temperature Precipitation Wind Pressure Humidity
00:00 +10°C° 0 mm 2 mps 759 mmHg 79%
01:00 +10°C° 0 mm 3 mps 759 mmHg 81%
02:00 +10°C° 0 mm 3 mps 759 mmHg 84%
03:00 +9°C° 0 mm 3 mps 759 mmHg 86%
04:00 +9°C° 0 mm 3 mps 759 mmHg 89%
05:00 +8°C° 0 mm 3 mps 759 mmHg 92%
06:00 +10°C° 0 mm 3 mps 759 mmHg 83%
07:00 +12°C° 0 mm 4 mps 758 mmHg 74%
08:00 +13°C° 0 mm 5 mps 758 mmHg 65%
09:00 +14°C° 0 mm 5 mps 758 mmHg 59%
10:00 +16°C° 0 mm 5 mps 758 mmHg 53%
11:00 +17°C° 0 mm 6 mps 758 mmHg 47%
12:00 +17°C° 0 mm 6 mps 757 mmHg 44%
13:00 +19°C° 0 mm 6 mps 757 mmHg 41%
14:00 +19°C° 0 mm 6 mps 756 mmHg 39%
15:00 +17°C° 0 mm 6 mps 756 mmHg 42%
16:00 +17°C° 0 mm 6 mps 755 mmHg 46%
17:00 +16°C° 0 mm 6 mps 755 mmHg 49%
18:00 +15°C° 0.1 mm 6 mps 755 mmHg 56%
19:00 +14°C° 0.1 mm 6 mps 755 mmHg 64%
20:00 +12°C° 0.1 mm 5 mps 755 mmHg 71%
21:00 +12°C° 0.7 mm 5 mps 755 mmHg 75%
22:00 +10°C° 0.7 mm 5 mps 755 mmHg 80%
23:00 +10°C° 0.7 mm 5 mps 754 mmHg 85%

Day after tomorrow, 24 April, Saturday

Time Temperature Precipitation Wind Pressure Humidity
00:00 +9°C° 0.8 mm 5 mps 754 mmHg 86%
01:00 +8°C° 0.8 mm 5 mps 754 mmHg 88%
02:00 +7°C° 0.8 mm 6 mps 754 mmHg 89%
03:00 +6°C° 0.2 mm 5 mps 754 mmHg 88%
04:00 +6°C° 0.2 mm 4 mps 755 mmHg 87%
05:00 +5°C° 0.2 mm 3 mps 755 mmHg 86%
06:00 +6°C° 0 mm 4 mps 755 mmHg 79%
07:00 +7°C° 0 mm 4 mps 755 mmHg 72%
08:00 +8°C° 0 mm 5 mps 755 mmHg 66%
09:00 +9°C° 0.2 mm 6 mps 755 mmHg 60%
10:00 +10°C° 0.2 mm 6 mps 755 mmHg 54%
11:00 +10°C° 0.2 mm 7 mps 755 mmHg 48%
12:00 +11°C° 0 mm 7 mps 755 mmHg 44%
13:00 +11°C° 0 mm 6 mps 755 mmHg 41%
14:00 +11°C° 0 mm 6 mps 755 mmHg 38%
15:00 +10°C° 0 mm 7 mps 755 mmHg 42%
16:00 +10°C° 0 mm 7 mps 755 mmHg 45%
17:00 +9°C° 0 mm 7 mps 755 mmHg 49%
18:00 +8°C° 0.1 mm 6 mps 756 mmHg 57%
19:00 +6°C° 0.1 mm 5 mps 757 mmHg 66%
20:00 +4°C° 0.1 mm 4 mps 758 mmHg 74%
21:00 +4°C° 0 mm 4 mps 758 mmHg 74%
22:00 +3°C° 0 mm 3 mps 758 mmHg 74%
23:00 +3°C° 0 mm 3 mps 758 mmHg 74%

25 April, Sunday

Time Temperature Precipitation Wind Pressure Humidity
00:00 +2°C° 0 mm 3 mps 759 mmHg 75%
01:00 +2°C° 0 mm 3 mps 759 mmHg 75%
02:00 +1°C° 0 mm 3 mps 759 mmHg 76%
03:00 +1°C° 0 mm 3 mps 759 mmHg 76%
04:00 +1°C° 0 mm 3 mps 759 mmHg 76%
05:00 +1°C° 0 mm 3 mps 759 mmHg 76%
06:00 +3°C° 0 mm 3 mps 759 mmHg 67%
07:00 +4°C° 0 mm 3 mps 759 mmHg 58%
08:00 +7°C° 0 mm 3 mps 759 mmHg 50%
09:00 +8°C° 0 mm 3 mps 759 mmHg 45%
10:00 +9°C° 0 mm 3 mps 759 mmHg 40%
11:00 +10°C° 0 mm 3 mps 759 mmHg 35%
12:00 +11°C° 0 mm 3 mps 759 mmHg 34%
13:00 +11°C° 0 mm 3 mps 758 mmHg 34%
14:00 +12°C° 0 mm 3 mps 758 mmHg 34%
15:00 +12°C° 0 mm 3 mps 758 mmHg 36%
16:00 +12°C° 0 mm 3 mps 757 mmHg 38%
17:00 +12°C° 0 mm 3 mps 757 mmHg 40%
18:00 +10°C° 0 mm 3 mps 757 mmHg 44%
19:00 +9°C° 0 mm 3 mps 757 mmHg 48%
20:00 +7°C° 0 mm 3 mps 757 mmHg 53%
21:00 +7°C° 0 mm 3 mps 757 mmHg 54%
22:00 +7°C° 0 mm 3 mps 757 mmHg 56%
23:00 +5°C° 0 mm 3 mps 757 mmHg 58%

26 April, Monday

Time Temperature Precipitation Wind Pressure Humidity
00:00 +6°C° 0 mm 2 mps 757 mmHg 61%
01:00 +6°C° 0 mm 2 mps 757 mmHg 65%
02:00 +5°C° 0 mm 2 mps 756 mmHg 69%
03:00 +5°C° 0 mm 2 mps 756 mmHg 72%
04:00 +5°C° 0 mm 2 mps 756 mmHg 75%
05:00 +6°C° 0 mm 1 mps 756 mmHg 79%
06:00 +6°C° 0.2 mm 2 mps 756 mmHg 78%
07:00 +7°C° 0.2 mm 2 mps 756 mmHg 76%
08:00 +8°C° 0.2 mm 2 mps 756 mmHg 75%
09:00 +8°C° 0.9 mm 3 mps 756 mmHg 78%
10:00 +7°C° 0.9 mm 3 mps 756 mmHg 80%
11:00 +7°C° 0.9 mm 3 mps 756 mmHg 82%
12:00 +8°C° 0.1 mm 3 mps 756 mmHg 71%
13:00 +10°C° 0.1 mm 3 mps 756 mmHg 59%
14:00 +11°C° 0.1 mm 3 mps 755 mmHg 48%
15:00 +11°C° 0 mm 3 mps 755 mmHg 47%
16:00 +11°C° 0 mm 3 mps 755 mmHg 47%
17:00 +11°C° 0 mm 3 mps 755 mmHg 46%
18:00 +9°C° 0 mm 3 mps 755 mmHg 50%
19:00 +8°C° 0 mm 2 mps 756 mmHg 55%
20:00 +6°C° 0 mm 2 mps 756 mmHg 59%
21:00 +6°C° 0 mm 2 mps 756 mmHg 61%
22:00 +5°C° 0 mm 2 mps 756 mmHg 62%
23:00 +5°C° 0 mm 2 mps 756 mmHg 64%

27 April, Tuesday

Time Temperature Precipitation Wind Pressure Humidity
00:00 +4°C° 0 mm 2 mps 756 mmHg 65%
01:00 +5°C° 0 mm 1 mps 756 mmHg 66%
02:00 +4°C° 0 mm 1 mps 756 mmHg 67%
03:00 +4°C° 0 mm 1 mps 756 mmHg 67%
04:00 +4°C° 0 mm 1 mps 756 mmHg 68%
05:00 +4°C° 0 mm 1 mps 756 mmHg 68%
06:00 +5°C° 0 mm 2 mps 756 mmHg 63%
07:00 +7°C° 0 mm 2 mps 756 mmHg 58%
08:00 +9°C° 0 mm 3 mps 756 mmHg 53%
09:00 +10°C° 0.1 mm 3 mps 755 mmHg 54%
10:00 +10°C° 0.1 mm 4 mps 755 mmHg 54%
11:00 +10°C° 0.1 mm 4 mps 755 mmHg 55%
12:00 +10°C° 0.9 mm 4 mps 754 mmHg 65%
13:00 +8°C° 0.9 mm 5 mps 754 mmHg 74%
14:00 +7°C° 0.9 mm 5 mps 753 mmHg 83%
15:00 +8°C° 0.4 mm 5 mps 753 mmHg 82%
16:00 +8°C° 0.4 mm 6 mps 753 mmHg 81%
17:00 +9°C° 0.4 mm 6 mps 752 mmHg 80%
18:00 +7°C° 0 mm 6 mps 753 mmHg 83%
19:00 +6°C° 0 mm 5 mps 753 mmHg 87%
20:00 +5°C° 0 mm 4 mps 754 mmHg 91%
21:00 +4°C° 0 mm 4 mps 755 mmHg 89%
22:00 +4°C° 0 mm 4 mps 755 mmHg 88%
23:00 +3°C° 0 mm 4 mps 756 mmHg 87%
Show more